• Join FlightAware (Why Join?)
  • Login
  • US Flag 
11:04AM EDT


 

Airport Tracker/Info


-or-


 

Live Flight TrackerFlight Track Log ✈ N181MP ✈ 29-Apr-2013 ✈ KGFK - KFAR

Flight Track Log - Related Links

Times and Time Zones

All times are in EDT time to prevent confusion due to time zone crossing. See the N181MP flight status page for this flight to view local times or setup timezone preferences in your user account.

Time Position Orientation Groundspeed Altitude Reporting Facility
EDT Latitude Longitude Course Direction KTS MPH feet Rate Location/Type
04:13PM 47.9264 -97.1825 172° South 123 142 2,400  Level Minneapolis Center
04:14PM 47.8775 -97.1717 172° South 125 144 5,200 1,860 Climbing Minneapolis Center
04:15PM 47.8672 -97.1717 180° South 124 143 5,600 1,740 Climbing Minneapolis Center
04:15PM 47.8428 -97.1556 156° South 146 168 6,800 1,740 Climbing Minneapolis Center
04:16PM 47.8281 -97.1506 167° South 134 154 7,400 1,620 Climbing Minneapolis Center
04:16PM 47.8056 -97.1336 153° Southeast 155 178 8,300 1,320 Climbing Minneapolis Center
04:17PM 47.7856 -97.1264 166° South 147 169 8,800 780 Climbing Minneapolis Center
04:17PM 47.7536 -97.1108 162° South 191 220 9,100 180 Climbing Minneapolis Center
04:18PM 47.7242 -97.0964 162° South 201 231 9,000 -120 Descending Minneapolis Center
04:18PM 47.6997 -97.0886 168° South 226 260 9,000  Level Minneapolis Center
04:19PM 47.6581 -97.0711 164° South 231 266 9,000  Level Minneapolis Center
04:20PM 47.5958 -97.0508 168° South 237 273 9,000  Level Minneapolis Center
04:21PM 47.5294 -97.0253 165° South 238 274 9,000 -60 Level Minneapolis Center
04:22PM 47.4636 -96.9939 162° South 239 275 8,900 -360 Descending Minneapolis Center
04:23PM 47.3869 -96.9653 166° South 237 273 8,200 -1,020 Descending Minneapolis Center
04:24PM 47.3200 -96.9361 164° South 240 276 6,900 -1,140 Descending Minneapolis Center
04:25PM 47.2544 -96.9097 165° South 234 269 5,700 -1,200 Descending Minneapolis Center
04:26PM 47.1825 -96.8819 165° South 223 257 4,300 -1,200 Descending Minneapolis Center
04:27PM 47.1222 -96.8594 166° South 215 247 3,300 -780 Descending Minneapolis Center
04:28PM 47.0656 -96.8325 162° South 209 241 2,800 -420 Descending Minneapolis Center
04:29PM 47.0153 -96.8181 169° South 179 206 2,500 -480 Descending Minneapolis Center
04:30PM 46.9769 -96.8156 177° South 136 157 1,900 -660 Descending Minneapolis Center
04:31PM 46.9436 -96.8158 180° South 125 144 1,200 -720 Descending Minneapolis Center